CW6981 Weather Reports


time (UTC)temp
C
wind
direction
speed
KPH
gust
KPH
rain 1hr
cm
rain 24hr
cm
rain mn
cm
humidity
%
barometer
mb
20260506161029 1 290 0.0 3.2 0.00 0.38 0.05 92 1026.9
20260506160543 1 252 0.0 3.2 0.00 0.41 0.05 92 1027.1
20260506160032 1 243 1.6 6.4 0.00 0.41 0.05 92 1027.0
20260506155604 1 243 3.2 6.4 0.00 0.41 0.05 92 1026.8
20260506155056 1 261 1.6 6.4 0.00 0.41 0.05 93 1026.9
20260506154525 1 269 0.0 6.4 0.00 0.41 0.05 93 1026.9
20260506154058 1 263 0.0 3.2 0.00 0.41 0.05 92 1027.0
20260506153530 1 266 1.6 6.4 0.03 0.41 0.05 93 1026.9
20260506153042 1 104 1.6 6.4 0.03 0.41 0.05 93 1026.9
20260506152535 1 157 0.0 3.2 0.03 0.41 0.05 93 1026.9
20260506152028 0 175 0.0 3.2 0.03 0.41 0.05 93 1026.9
20260506151533 0 110 0.0 1.6 0.03 0.41 0.05 93 1026.7
20260506151045 0 266 0.0 3.2 0.03 0.41 0.05 93 1026.6
20260506150540 0 235 1.6 3.2 0.03 0.43 0.05 93 1026.6
20260506150031 1 271 0.0 3.2 0.03 0.43 0.05 93 1026.5
20260506145602 1 87 0.0 1.6 0.03 0.43 0.05 93 1026.5
20260506145038 1 87 0.0 1.6 0.03 0.43 0.05 93 1026.4
20260506144532 0 87 0.0 0.0 0.03 0.43 0.05 93 1026.5
20260506144104 0 87 0.0 0.0 0.03 0.43 0.05 93 1026.4
20260506143537 0 87 0.0 0.0 0.00 0.41 0.03 93 1026.3
20260506143028 0 87 0.0 0.0 0.00 0.41 0.03 93 1026.3
20260506142541 0 87 0.0 1.6 0.00 0.41 0.03 93 1026.2
20260506142035 0 85 0.0 1.6 0.00 0.41 0.03 93 1026.1
20260506141526 0 84 0.0 1.6 0.00 0.41 0.03 93 1026.2
20260506141038 0 84 0.0 1.6 0.00 0.41 0.03 93 1026.1
20260506140531 0 84 0.0 1.6 0.00 0.46 0.03 93 1026.1
20260506140039 0 36 0.0 0.0 0.00 0.46 0.03 93 1026.0
20260506135530 0 36 0.0 1.6 0.00 0.46 0.03 93 1026.1
20260506135103 0 341 0.0 1.6 0.00 0.46 0.03 93 1026.1
20260506134529 0 335 0.0 1.6 0.00 0.46 0.03 93 1026.2
20260506134041 0 320 0.0 0.0 0.00 0.46 0.03 93 1026.0
20260506133533 0 320 0.0 0.0 0.00 0.46 0.03 93 1025.9
20260506133059 0 119 0.0 0.0 0.00 0.46 0.03 93 1026.6
20260506132533 0 119 0.0 0.0 0.00 0.46 0.03 93 1026.4
20260506132047 0 119 0.0 0.0 0.00 0.46 0.03 93 1026.5
20260506131534 0 119 0.0 0.0 0.00 0.46 0.03 93 1026.4
20260506131023 0 119 0.0 1.6 0.00 0.46 0.03 93 1026.5
20260506130539 0 119 0.0 1.6 0.00 0.51 0.03 92 1026.3
20260506130028 0 119 0.0 1.6 0.00 0.51 0.03 92 1026.1
20260506125539 0 119 0.0 1.6 0.00 0.51 0.03 92 1026.0
20260506125032 0 119 0.0 1.6 0.00 0.51 0.03 93 1025.8
20260506124543 0 119 0.0 3.2 0.00 0.51 0.03 93 1025.8
20260506124026 0 119 0.0 3.2 0.00 0.51 0.03 93 1025.5
20260506123540 0 119 0.0 1.6 0.00 0.51 0.03 93 1025.4
20260506123050 0 119 0.0 1.6 0.00 0.51 0.03 92 1025.4
20260506122540 0 119 0.0 1.6 0.00 0.51 0.03 92 1025.4
20260506122051 0 119 0.0 1.6 0.00 0.51 0.03 93 1025.5
20260506121538 0 119 0.0 1.6 0.00 0.51 0.03 93 1025.4
20260506121029 0 119 0.0 1.6 0.00 0.51 0.03 93 1025.4
20260506120540 0 119 0.0 0.0 0.00 0.56 0.03 93 1025.4
20260506120028 0 119 0.0 0.0 0.00 0.56 0.03 93 1025.3
20260506115536 0 119 0.0 0.0 0.00 0.56 0.03 93 1025.2
20260506115031 0 119 0.0 1.6 0.00 0.56 0.03 93 1025.1
20260506114541 0 119 0.0 1.6 0.00 0.56 0.03 93 1025.0
20260506114053 0 119 0.0 0.0 0.00 0.56 0.03 93 1025.0
20260506113545 0 119 0.0 0.0 0.00 0.56 0.03 93 1024.9
20260506113035 0 119 0.0 0.0 0.00 0.56 0.03 92 1025.0
20260506112548 0 119 0.0 0.0 0.00 0.56 0.03 93 1025.0
20260506112040 0 119 0.0 0.0 0.00 0.56 0.03 92 1024.9
20260506111530 0 119 0.0 0.0 0.00 0.56 0.03 92 1024.7
20260506111022 0 119 0.0 0.0 0.00 0.56 0.03 92 1024.6
20260506110541 0 119 0.0 0.0 0.00 0.56 0.03 92 1024.6
20260506110032 0 119 0.0 0.0 0.00 0.56 0.03 92 1024.6
20260506105542 0 119 0.0 0.0 0.00 0.56 0.03 92 1024.7
20260506105057 0 119 0.0 0.0 0.00 0.56 0.03 92 1024.7
20260506104544 0 119 0.0 0.0 0.00 0.56 0.03 92 1024.7
20260506104036 0 119 0.0 0.0 0.00 0.56 0.03 92 1024.5
20260506103530 0 119 0.0 0.0 0.00 0.56 0.03 92 1024.6
20260506103041 0 119 0.0 3.2 0.00 0.56 0.03 92 1024.6
20260506102534 0 119 0.0 3.2 0.00 0.56 0.03 92 1024.7
20260506102034 0 119 0.0 1.6 0.00 0.56 0.03 92 1024.8
20260506101539 0 119 0.0 0.0 0.00 0.56 0.03 93 1024.7
20260506101032 0 119 0.0 0.0 0.00 0.56 0.03 93 1024.8
20260506100526 0 119 0.0 0.0 0.00 0.56 0.03 93 1024.8
20260506100035 0 119 0.0 1.6 0.00 0.56 0.03 93 1024.7
20260506095525 0 119 0.0 1.6 0.00 0.56 0.03 93 1024.6
20260506095035 0 121 0.0 1.6 0.00 0.56 0.03 92 1024.7
20260506094526 0 121 0.0 1.6 0.00 0.56 0.03 93 1024.7
20260506094055 0 121 0.0 0.0 0.00 0.56 0.03 92 1024.5
20260506093527 0 121 0.0 1.6 0.00 0.56 0.03 92 1024.4
20260506093054 0 121 0.0 1.6 0.00 0.56 0.03 92 1024.4
20260506092544 0 120 0.0 1.6 0.00 0.56 0.03 92 1024.3
20260506092038 0 118 0.0 0.0 0.00 0.56 0.03 92 1024.2
20260506091549 1 118 0.0 0.0 0.00 0.56 0.03 92 1024.2
20260506091039 0 118 0.0 1.6 0.00 0.56 0.03 92 1024.1
20260506090532 1 119 0.0 1.6 0.00 0.56 0.03 92 1024.0
20260506090025 1 119 0.0 1.6 0.00 0.56 0.03 92 1024.8
20260506085537 1 119 0.0 1.6 0.00 0.56 0.03 92 1024.8
20260506085029 1 123 0.0 0.0 0.00 0.56 0.03 93 1024.7
20260506084537 1 123 0.0 1.6 0.00 0.56 0.03 93 1024.7
20260506084030 1 123 0.0 1.6 0.00 0.56 0.03 93 1024.8
20260506083530 1 123 0.0 1.6 0.00 0.56 0.03 93 1024.7
20260506083040 1 123 0.0 1.6 0.00 0.56 0.03 93 1024.7
20260506082529 1 123 0.0 1.6 0.00 0.56 0.03 93 1024.8
20260506082044 1 107 0.0 1.6 0.00 0.56 0.03 93 1024.9
20260506081531 1 169 0.0 1.6 0.03 0.56 0.03 93 1024.9
20260506081021 1 230 0.0 1.6 0.03 0.56 0.03 93 1025.0
20260506080559 1 189 0.0 1.6 0.03 0.56 0.03 92 1025.0
20260506073527 1 266 0.0 1.6 0.03 0.56 0.03 92 1024.7
20260506073037 1 266 0.0 0.0 0.03 0.56 0.03 92 1024.7
20260506072527 1 266 0.0 0.0 0.03 0.56 0.03 92 1024.6
20260506072036 1 267 0.0 3.2 0.03 0.56 0.03 92 1024.6
20260506071546 1 267 0.0 3.2 0.00 0.53 0.00 92 1024.7
20260506071035 1 278 0.0 1.6 0.00 0.53 0.00 92 1024.6
20260506070528 1 278 0.0 1.6 0.00 0.53 0.00 92 1024.5
20260506062034 1 13 0.0 1.6 0.00 0.53 0.00 92 1024.1
20260506061542 1 53 0.0 1.6 0.00 0.53 0.00 92 1023.8
20260506061033 1 84 0.0 0.0 0.00 0.53 0.00 92 1023.7
20260506060604 1 84 0.0 1.6 0.00 0.53 0.00 92 1023.4
20260506060109 1 84 0.0 1.6 0.03 0.53 0.53 92 1023.4
20260506051032 1 239 0.0 1.6 0.03 0.53 0.53 92 1024.2
20260506050606 1 173 0.0 1.6 0.03 0.58 0.53 92 1024.2
20260506045037 1 179 0.0 1.6 0.00 0.56 0.51 92 1024.0
20260506044550 1 179 0.0 1.6 0.00 0.56 0.51 92 1024.0
20260506044044 1 257 0.0 0.0 0.00 0.56 0.51 92 1024.0
20260506043539 1 257 0.0 1.6 0.00 0.56 0.51 92 1024.0
20260506043034 1 262 0.0 1.6 0.00 0.56 0.51 92 1024.0
20260506042527 1 262 0.0 1.6 0.00 0.56 0.51 92 1024.1
20260506042040 1 262 0.0 0.0 0.00 0.56 0.51 92 1024.0
20260506041529 1 262 0.0 0.0 0.00 0.56 0.51 92 1023.9
20260506041042 1 262 0.0 0.0 0.00 0.56 0.51 92 1024.0
20260506040557 1 262 0.0 0.0 0.00 0.71 0.51 92 1023.8
20260506040046 1 262 0.0 0.0 0.00 0.71 0.51 92 1023.7
20260506035537 1 262 0.0 0.0 0.00 0.71 0.51 92 1023.8
20260506035050 1 270 0.0 0.0 0.00 0.71 0.51 92 1023.7
20260506034539 1 272 0.0 3.2 0.03 0.71 0.51 92 1023.6
20260506034051 1 272 0.0 3.2 0.03 0.71 0.51 92 1023.5
20260506033602 1 287 0.0 1.6 0.03 0.71 0.51 92 1023.4
20260506033055 1 250 0.0 1.6 0.03 0.71 0.51 92 1023.4
20260506032528 1 250 0.0 3.2 0.03 0.71 0.51 92 1023.2
20260506032042 1 233 0.0 3.2 0.03 0.71 0.51 92 1023.1
20260506031531 1 327 0.0 1.6 0.03 0.71 0.51 92 1022.9
20260506031042 1 327 0.0 1.6 0.03 0.71 0.51 92 1022.7
20260506030611 1 327 0.0 1.6 0.03 0.71 0.51 92 1022.8
20260506030029 1 281 0.0 3.2 0.03 0.71 0.51 92 1022.6
20260506025559 1 156 1.6 3.2 0.03 0.71 0.51 92 1022.5
20260506025052 1 241 0.0 1.6 0.03 0.71 0.51 92 1022.3
20260506024523 1 241 0.0 1.6 0.00 0.69 0.48 92 1022.3
20260506024036 1 241 0.0 1.6 0.00 0.69 0.48 92 1022.2
20260506023530 1 241 0.0 1.6 0.00 0.69 0.48 92 1022.2
20260506023041 1 209 0.0 1.6 0.00 0.69 0.48 92 1022.2
20260506022533 1 210 0.0 1.6 0.00 0.69 0.48 92 1022.9
20260506022044 1 210 0.0 1.6 0.00 0.69 0.48 92 1022.7
20260506021552 1 252 0.0 0.0 0.00 0.69 0.48 92 1022.5
20260506021041 1 252 0.0 0.0 0.00 0.69 0.48 92 1022.3
20260506020535 1 252 0.0 0.0 0.03 0.71 0.48 92 1022.3
20260506020026 1 252 0.0 0.0 0.03 0.71 0.48 91 1022.3
20260506015558 1 252 0.0 0.0 0.03 0.71 0.48 91 1022.4
20260506015030 1 252 0.0 0.0 0.03 0.71 0.48 91 1022.2
20260506014534 1 254 0.0 0.0 0.03 0.71 0.48 91 1021.9
20260506014042 1 278 0.0 0.0 0.03 0.71 0.48 91 1022.0
20260506013554 1 306 0.0 0.0 0.03 0.71 0.48 91 1022.0
20260506013023 1 306 0.0 0.0 0.03 0.71 0.48 91 1021.9
20260506012537 1 306 0.0 1.6 0.03 0.71 0.48 91 1021.9
20260506012028 1 307 0.0 1.6 0.03 0.71 0.48 91 1021.7
20260506011538 1 274 0.0 0.0 0.03 0.71 0.48 91 1021.8
20260506011029 1 261 0.0 0.0 0.03 0.71 0.48 91 1021.6
20260506010540 1 268 0.0 3.2 0.00 0.71 0.46 91 1021.4
20260506010030 1 266 0.0 3.2 0.00 0.71 0.46 91 1021.3
20260506005541 1 239 1.6 3.2 0.00 0.71 0.46 91 1021.4
20260506005034 1 286 0.0 3.2 0.00 0.71 0.46 91 1021.5
20260506004542 1 246 0.0 4.8 0.00 0.71 0.46 91 1021.4
20260506004035 1 218 0.0 4.8 0.00 0.71 0.46 91 1021.3
20260506003546 1 272 0.0 4.8 0.00 0.71 0.46 91 1021.2
20260506003057 1 208 0.0 3.2 0.00 0.71 0.46 91 1021.1
20260506002529 1 147 0.0 6.4 0.00 0.71 0.46 91 1021.0
20260506002026 1 270 1.6 6.4 0.00 0.71 0.46 90 1020.9
20260506001540 1 268 0.0 3.2 0.00 0.71 0.46 91 1020.9
20260506001032 1 268 0.0 4.8 0.03 0.71 0.46 90 1021.5
20260506000602 1 290 3.2 4.8 0.03 0.71 0.46 90 1021.4
20260506000030 1 223 1.6 8.0 0.05 0.71 0.46 90 1021.3
20260505235543 1 110 3.2 8.0 0.05 0.71 0.46 90 1021.2
20260505235036 1 291 1.6 4.8 0.05 0.71 0.46 90 1021.1
20260505234526 1 253 1.6 6.4 0.08 0.71 0.46 90 1021.0
20260505234037 1 238 1.6 6.4 0.10 0.71 0.46 90 1020.9
20260505233532 1 139 0.0 6.4 0.10 0.71 0.46 90 1021.0
20260505233042 1 245 3.2 6.4 0.13 0.71 0.46 90 1020.9
20260505232555 1 233 0.0 8.0 0.15 0.71 0.46 89 1020.9
20260505232047 2 27 0.0 8.0 0.15 0.71 0.46 89 1020.6
20260505231528 2 269 1.6 4.8 0.18 0.71 0.46 89 1020.4
20260505231039 2 240 1.6 9.7 0.18 0.71 0.46 89 1020.3
20260505230533 2 117 1.6 9.7 0.15 0.69 0.43 88 1020.0
20260505230043 2 239 1.6 6.4 0.15 0.66 0.41 88 1019.9
20260505225536 2 297 1.6 8.0 0.15 0.66 0.41 88 1020.2
20260505225033 2 263 0.0 8.0 0.15 0.66 0.41 88 1021.1
20260505224544 3 298 3.2 6.4 0.13 0.64 0.38 88 1021.0
20260505224036 3 281 3.2 6.4 0.10 0.61 0.36 87 1020.6
20260505223531 3 237 3.2 11.3 0.13 0.61 0.36 87 1020.4
20260505223041 3 266 3.2 11.3 0.10 0.58 0.33 88 1020.1
20260505222549 4 270 3.2 9.7 0.08 0.56 0.30 88 1020.0
20260505222104 5 228 3.2 8.0 0.08 0.56 0.30 88 1019.8
20260505221555 5 109 3.2 8.0 0.05 0.53 0.28 89 1019.7
20260505221027 5 147 1.6 6.4 0.05 0.53 0.28 88 1019.6
20260505220540 5 99 1.6 6.4 0.05 0.53 0.28 88 1019.5
20260505220050 5 238 0.0 6.4 0.03 0.51 0.25 88 1019.2
20260505215541 5 281 1.6 4.8 0.03 0.51 0.25 88 1019.2
20260505215035 5 239 0.0 3.2 0.03 0.51 0.25 87 1019.4
20260505214545 5 175 1.6 3.2 0.03 0.51 0.25 87 1019.4
20260505214034 5 270 1.6 6.4 0.03 0.51 0.25 87 1019.4
20260505213552 5 126 3.2 6.4 0.03 0.51 0.25 86 1019.5
20260505213031 5 69 1.6 6.4 0.00 0.48 0.23 86 1019.5
20260505212558 5 77 1.6 8.0 0.00 0.48 0.23 86 1019.5
20260505212032 6 121 3.2 8.0 0.00 0.48 0.23 86 1019.4
20260505211540 6 156 1.6 8.0 0.00 0.48 0.23 86 1019.4
20260505211055 6 292 0.0 3.2 0.00 0.48 0.23 86 1019.3
20260505210528 5 292 0.0 6.4 0.00 0.48 0.23 86 1019.3
20260505210040 5 235 0.0 6.4 0.00 0.48 0.23 86 1020.1
20260505205531 5 117 0.0 3.2 0.00 0.48 0.23 87 1020.2
20260505205043 5 125 1.6 3.2 0.00 0.48 0.23 88 1020.4
20260505204552 5 306 0.0 3.2 0.00 0.48 0.23 88 1020.5
20260505204041 5 218 0.0 6.4 0.00 0.48 0.23 89 1020.5
20260505203536 5 195 1.6 6.4 0.03 0.48 0.23 89 1020.8
20260505203025 5 126 0.0 3.2 0.03 0.48 0.23 89 1020.9
20260505202536 5 164 1.6 6.4 0.03 0.48 0.23 89 1020.9
20260505202033 5 112 1.6 6.4 0.03 0.48 0.23 89 1020.9
20260505201542 5 231 1.6 8.0 0.03 0.48 0.23 88 1020.9
20260505201053 5 108 3.2 8.0 0.03 0.48 0.23 89 1020.7
20260505200527 5 96 3.2 6.4 0.03 0.48 0.23 87 1020.7
20260505200036 5 59 1.6 4.8 0.03 0.48 0.23 88 1020.7
20260505195527 5 100 1.6 3.2 0.03 0.48 0.23 89 1020.8
20260505195041 5 109 0.0 3.2 0.03 0.48 0.23 88 1020.8
20260505194530 5 119 0.0 3.2 0.03 0.48 0.23 88 1020.7
20260505194057 5 226 0.0 3.2 0.03 0.48 0.23 88 1020.7
20260505193527 5 102 0.0 3.2 0.00 0.46 0.20 88 1020.7
20260505193036 5 105 0.0 3.2 0.00 0.46 0.20 89 1020.6
20260505192528 5 104 0.0 3.2 0.00 0.46 0.20 89 1020.5
20260505192041 5 87 0.0 3.2 0.00 0.46 0.20 89 1020.6
20260505191552 5 139 1.6 3.2 0.00 0.46 0.20 90 1020.7
20260505191043 5 158 1.6 6.4 0.00 0.46 0.20 90 1020.7
20260505190540 5 99 0.0 6.4 0.00 0.46 0.20 90 1020.6
20260505190033 5 77 0.0 6.4 0.00 0.46 0.20 90 1020.6
20260505185528 5 131 0.0 3.2 0.00 0.46 0.20 90 1020.7
20260505185043 5 133 0.0 3.2 0.00 0.46 0.20 90 1020.7
20260505184536 5 206 0.0 3.2 0.00 0.46 0.20 90 1020.8
20260505184030 4 110 1.6 3.2 0.00 0.46 0.20 90 1021.6
20260505183545 4 112 1.6 3.2 0.00 0.46 0.20 90 1021.7
20260505183038 4 187 0.0 8.0 0.00 0.46 0.20 90 1021.7
20260505182553 4 112 3.2 8.0 0.00 0.46 0.20 90 1021.9
20260505182028 4 98 4.8 8.0 0.00 0.46 0.20 90 1021.9
20260505181540 4 297 1.6 6.4 0.00 0.46 0.20 91 1021.7
20260505181055 4 102 1.6 6.4 0.00 0.46 0.20 91 1021.7
20260505180532 4 124 0.0 8.0 0.00 0.46 0.20 91 1021.8
20260505180040 4 89 1.6 8.0 0.00 0.46 0.20 91 1021.9
20260505175537 4 258 0.0 4.8 0.00 0.46 0.20 90 1021.9
20260505175034 4 242 0.0 4.8 0.00 0.46 0.20 91 1022.0
20260505174526 4 258 1.6 4.8 0.00 0.46 0.20 91 1022.0
20260505174041 4 202 0.0 3.2 0.00 0.46 0.20 91 1021.9
20260505173539 4 210 0.0 3.2 0.00 0.46 0.20 91 1021.9
20260505173053 4 272 0.0 4.8 0.00 0.46 0.20 91 1021.9
20260505172526 4 254 1.6 4.8 0.00 0.46 0.20 91 1022.0
20260505172042 4 96 0.0 3.2 0.00 0.46 0.20 91 1021.9
20260505171534 4 103 0.0 3.2 0.00 0.46 0.20 91 1021.9
20260505171029 3 79 1.6 3.2 0.00 0.46 0.20 91 1021.9
20260505170546 3 119 0.0 3.2 0.00 0.46 0.20 91 1021.9
20260505170040 3 249 0.0 3.2 0.00 0.46 0.20 91 1021.9
20260505165535 3 249 0.0 3.2 0.03 0.46 0.20 91 1021.9
20260505165050 3 110 1.6 3.2 0.03 0.46 0.20 91 1021.9
20260505164531 3 312 0.0 3.2 0.03 0.46 0.20 92 1022.0
20260505164042 3 312 0.0 3.2 0.03 0.46 0.20 92 1022.0
20260505163534 3 312 0.0 3.2 0.03 0.46 0.20 92 1022.1
20260505163027 3 312 0.0 3.2 0.03 0.46 0.20 92 1022.1
20260505162537 3 258 1.6 3.2 0.03 0.46 0.20 92 1022.1
20260505162030 3 289 0.0 3.2 0.03 0.46 0.20 92 1022.0
20260505161540 3 138 0.0 3.2 0.03 0.46 0.20 92 1022.8